Regional Weather Roundup
Issued by NWS

Home | Current Version | Previous Version | Text Only | Print | Product List | Glossary Off
Versions: 1 2 3 4 5 6 7 8 9 10 11 12 13 14 15 16 17 18 19 20 21 22 23 24 25 26 27

000
ASUS45 KSLC 290010
RWRUT

UTAH REGIONAL WEATHER ROUNDUP
NATIONAL WEATHER SERVICE SALT LAKE CITY UT
600 PM MDT THU JUL 28 2016

UTZ001>011-023>025-290100-

NORTHERN UTAH

CITY           SKY/WX    TMP DP  RH WIND       PRES   REMARKS
BRIGHAM CITY     N/A     97  28   8 SW5       30.03S HX  91
HILL AFB       NOT AVBL
LOGAN          SUNNY     96  38  13 N10G16    30.04F HX  91
OGDEN          SUNNY     97  38  13 W5        30.04F HX  92
PROVO AIRPORT  MOSUNNY   99  39  12 NW14      30.04F HX  94
SALT LAKE CITY MOSUNNY  101  33   9 N7        30.02F HX  95
VERNAL         CLOUDY    95  29   9 E6        30.03F
WENDOVER       SUNNY     99  37  12 SE7       30.02S HX  93
HEBER CITY     SUNNY     95  32  11 N15G21    30.12S HX  90
WEST JORDAN    SUNNY     97  39  13 NW13      30.07  HX  92

$$

UTZ012>022-026-027-290100-

SOUTHERN/CENTRAL UTAH

CITY           SKY/WX    TMP DP  RH WIND       PRES   REMARKS
BLANDING       MOSUNNY   96  32  10 W8        30.18S HX  90
BRYCE CANYON   PTSUNNY   86  29  12 S3        30.34S
CEDAR CITY     MOSUNNY   94  34  12 W15G22    30.13R
DELTA          SUNNY    100  27   7 N12       30.03F HX  93
MILFORD        MOSUNNY  103  25   6 NE15      30.03F HX  95
MOAB/CYNLANDS  MOSUNNY  104  24   6 NW10G23   29.96F HX  96
PRICE          SUNNY     97  22   7 NW20G32   30.12S HX  90
ST GEORGE      CLEAR    106  41  11 SW14G20   29.86F HX 100

$$

REGIONAL REPORTS     COLORADO/ARIZONA

CITY           SKY/WX    TMP DP  RH WIND       PRES   REMARKS
CRAIG, CO      SUNNY     92  27   9 W15G21    30.14F
GRAND JUNCTION MOSUNNY   98  27   8 N21G39    30.00S HX  92
RIFLE          SUNNY     95  23   7 NW17G24   30.05F
MONTROSE       SUNNY     96  28   9 N8        30.10F HX  90
CORTEZ         SUNNY     93  36  13 NE18G28   30.13R
PAGE, AZ       MOSUNNY  105  32   8 NW14G33   29.96S HX  98
GRAND CANYON   PTSUNNY   87  39  18 NW6       30.26R
KINGMAN        MOSUNNY  100  48  17 E18G36    29.97R HX  96
FLAGSTAFF      PTSUNNY   83  42  23 CALM      30.26F

$$

REGIONAL REPORTS    NEVADA/IDAHO/WYOMING

CITY           SKY/WX    TMP DP  RH WIND       PRES   REMARKS
LAS VEGAS, NV  PTSUNNY  113  33   6 CALM      29.74F HX 105
ELY            PTSUNNY   95  28   9 N13       30.18S
ELKO           SUNNY    100  23   6 W13       30.08F HX  93
POCATELLO, ID  SUNNY     94  33  11 W14       30.06F
BURLEY         SUNNY     90  42  18 W12       30.04F
EVANSTON, WY   MOSUNNY   87  28  12 NW17      30.28S
ROCK SPRINGS   SUNNY     88  17   7 NW24G32   30.19S
KEMMERER         N/A     82  19   9 NW20G31   30.28S

$$




USA.gov is the U.S. government's official web portal to all federal, state and local government web resources and services.